This is the latest recevied weather packets stored in our database for station/object KN6DHD. If no packets are shown the sender has not sent any weather packets the latest 10 day(s).
| Time | Temp. | Humidity | Pressure | Rain* | Wind** | Luminosity | Snow |
|---|---|---|---|---|---|---|---|
| 1777344282 | 17.78° C | 64% | 1017.2 hPa | 0 mm | - | 3 W/m² | - |
| 1777343978 | 17.78° C | 62% | 1016.9 hPa | 0 mm | - | 5 W/m² | - |
| 1777343677 | 17.78° C | 61% | 1017 hPa | 0 mm | - | 8 W/m² | - |
| 1777343373 | 18.33° C | 59% | 1016.9 hPa | 0 mm | - | 12 W/m² | - |
| 1777343072 | 18.89° C | 58% | 1016.9 hPa | 0 mm | - | 15 W/m² | - |
| 1777342768 | 18.89° C | 55% | 1016.6 hPa | 0 mm | - | 21 W/m² | - |
| 1777342466 | 18.89° C | 55% | 1017 hPa | 0 mm | - | 29 W/m² | - |
| 1777342162 | 18.89° C | 53% | 1016.9 hPa | 0 mm | - | 30 W/m² | - |
| 1777341858 | 18.89° C | 53% | 1016.6 hPa | 0 mm | - | 33 W/m² | - |
| 1777341555 | 18.89° C | 54% | 1016.7 hPa | 0 mm | - | 33 W/m² | - |
| 1777341251 | 18.89° C | 54% | 1016.7 hPa | 0 mm | - | 34 W/m² | - |
| 1777340947 | 19.44° C | 54% | 1016.7 hPa | 0 mm | - | 31 W/m² | - |
| 1777340646 | 19.44° C | 54% | 1016.7 hPa | 0 mm | - | 29 W/m² | - |
| 1777340343 | 20° C | 53% | 1016.7 hPa | 0 mm | - | 29 W/m² | - |
| 1777340040 | 20° C | 52% | 1016.6 hPa | 0 mm | - | 41 W/m² | - |
| 1777339737 | 20° C | 53% | 1016.4 hPa | 0 mm | - | 46 W/m² | - |
| 1777339435 | 20° C | 52% | 1016.3 hPa | 0 mm | - | 47 W/m² | - |
| 1777339132 | 20.56° C | 51% | 1016.5 hPa | 0 mm | - | 66 W/m² | - |
| 1777338830 | 20.56° C | 51% | 1016.5 hPa | 0 mm | - | 84 W/m² | - |
| 1777338527 | 20.56° C | 49% | 1016.5 hPa | 0 mm | - | 64 W/m² | - |
| 1777338224 | 20.56° C | 48% | 1016.6 hPa | 0 mm | - | 69 W/m² | - |
| 1777337919 | 20.56° C | 48% | 1016.4 hPa | 0 mm | - | 68 W/m² | - |
| 1777337617 | 21.11° C | 48% | 1016.5 hPa | 0 mm | - | 68 W/m² | - |
| 1777337314 | 21.11° C | 47% | 1016.2 hPa | 0 mm | - | 95 W/m² | - |
| 1777337011 | 21.11° C | 49% | 1016.3 hPa | 0 mm | - | 146 W/m² | - |
* Rain latest hour (hover to see other rain measurements)
** Current wind speed in m/s (hover to see current wind gust speed)